Location: Boca do Mato
(22.9085°S, 43.2930°W)
Time: 22:20:02
(UTC+00:00)

Delta 168 - Pass Details

Date: 14 July 2020
Orbit: 394 x 2050 km, 25.3° (Epoch: 10 August)

Event Time Altitude Azimuth Distance (km) Brightness Sun altitude
Exits shadow 07:30:52 64° 333° (NNW) 959 3.8 -27.7°
Maximum altitude 07:31:31 71° 14° (NNE) 893 3.8 -27.6°
Drops below altitude 10° 07:36:17 10° 98° (E) 2,050 6.6 -26.5°
Sets 07:38:14 0° 100° (E) 2,797 7.5 -26.1°
